Date String (YYYY-MM-DD hh:mm:ss) UTC,Instrument flags,Ambient pressure (hPa),Sample flow (lpm),Bypass flow (lpm),Sample temperature (°C),Ambient temperature (°C),ASC tube jacket temperature (°C),LED temperature (°C),Box temperature (°C),Sample RH (%),Span deviation,Mass concentration (μg/m³),Mass concentration (μg/m³),Mass concentration (μg/m³)
DateTimeUTC,F1_M11,P_M11,Q1_M11,Q2_M11,T1_M11,T2_M11,T3_M11,T4_M11,T5_M11,U1_M11,ZSPAN_M11,X0_M11,X2_M11,X1_M11
2022-05-23 00:00:00,,0826.4,5.01,0.00,30.4,29.6,00.0,39.3,32.1,15.5,0000.0,0000.05,0000.02,0000.00
2022-05-23 00:01:00,,0826.4,5.00,0.00,30.4,29.6,00.0,39.3,32.1,15.9,0000.0,0000.05,0000.02,0000.00
2022-05-23 00:02:00,,0826.3,4.99,0.00,30.4,29.6,00.0,39.3,32.1,15.9,0000.0,0000.05,0000.02,0000.00
2022-05-23 00:03:00,,0826.3,5.00,0.00,30.4,29.6,00.0,39.3,32.1,15.4,0000.0,0000.05,0000.02,0000.00
2022-05-23 00:04:00,,0826.3,5.00,0.00,30.4,29.6,00.0,39.3,32.2,15.5,0000.0,0000.05,0000.02,0000.00
2022-05-23 00:05:00,,0826.2,5.00,0.00,30.4,29.6,00.0,39.3,32.2,15.6,0000.0,0000.05,0000.02,0000.00
2022-05-23 00:06:00,,0826.2,4.99,0.00,30.4,29.6,00.0,39.3,32.2,15.5,0000.0,0000.05,0000.02,0000.00
2022-05-23 00:07:00,,0826.2,5.01,0.00,30.4,29.6,00.0,39.3,32.2,15.1,0000.0,0000.05,0000.02,0000.00
2022-05-23 00:08:00,,0826.2,5.00,0.00,30.5,29.6,00.0,39.3,32.2,15.0,0000.0,0000.00,0000.00,0000.00
2022-05-23 00:09:00,,0826.2,5.01,0.00,30.5,29.7,00.0,39.3,32.2,14.8,0000.0,0000.00,0000.00,0000.00
2022-05-23 00:10:00,,0826.2,5.00,0.00,30.5,29.7,00.0,39.4,32.2,14.8,0000.0,0000.00,0000.00,0000.00
2022-05-23 00:11:00,,0826.2,5.00,0.00,30.5,29.5,00.0,39.3,32.2,15.0,0000.0,0000.00,0000.00,0000.00
2022-05-23 00:12:00,,0826.2,5.00,0.00,30.4,28.6,00.0,39.3,32.0,15.4,0000.0,0000.80,0000.01,0000.00
2022-05-23 00:13:00,,0826.2,5.00,0.00,30.3,27.7,00.0,39.2,31.7,15.7,0000.0,0001.13,0000.01,0000.00
2022-05-23 00:14:00,,0826.2,4.99,0.00,30.2,27.5,00.0,39.1,31.6,15.7,0000.0,0001.13,0000.01,0000.00
2022-05-23 00:15:00,,0826.3,5.00,0.00,30.1,27.5,00.0,39.1,31.5,16.0,0000.0,0001.13,0000.01,0000.00
2022-05-23 00:16:00,,0826.3,5.00,0.00,30.0,27.7,00.0,39.1,31.5,15.9,0000.0,0001.13,0000.01,0000.00
2022-05-23 00:17:00,,0826.3,4.99,0.00,30.0,27.8,00.0,39.0,31.6,15.6,0000.0,0001.13,0000.01,0000.00
2022-05-23 00:18:00,,0826.4,5.01,0.00,30.0,28.0,00.0,39.0,31.6,15.5,0000.0,0001.14,0000.01,0000.00
2022-05-23 00:19:00,,0826.3,4.99,0.00,29.9,28.1,00.0,39.0,31.6,15.2,0000.0,0001.14,0000.01,0000.00
2022-05-23 00:20:00,,0826.3,5.00,0.00,29.9,28.3,00.0,39.0,31.6,15.4,0000.0,0001.13,0000.01,0000.00
2022-05-23 00:21:00,,0826.3,5.01,0.00,29.9,28.4,00.0,39.0,31.6,15.8,0000.0,0001.13,0000.01,0000.00
2022-05-23 00:22:00,,0826.3,5.01,0.00,29.9,28.5,00.0,38.9,31.6,15.6,0000.0,0001.13,0000.01,0000.00
2022-05-23 00:23:00,,0826.2,4.99,0.00,29.9,28.6,00.0,38.9,31.6,15.6,0000.0,0000.71,0000.01,0000.00
2022-05-23 00:24:00,,0826.2,5.00,0.00,29.9,28.6,00.0,38.9,31.6,15.9,0000.0,0000.02,0000.00,0000.00
2022-05-23 00:25:00,,0826.2,5.00,0.00,29.9,28.7,00.0,38.9,31.6,15.8,0000.0,0000.01,0000.00,0000.00
2022-05-23 00:26:00,,0826.2,5.01,0.00,29.9,28.8,00.0,38.9,31.7,15.6,0000.0,0000.01,0000.00,0000.00
2022-05-23 00:27:00,,0826.1,5.00,0.00,29.9,28.8,00.0,38.9,31.7,15.8,0000.0,0000.01,0000.00,0000.00
2022-05-23 00:28:00,,0826.2,5.00,0.00,29.9,28.9,00.0,38.9,31.7,15.7,0000.0,0000.01,0000.00,0000.00
2022-05-23 00:29:00,,0826.2,5.00,0.00,30.0,29.0,00.0,38.9,31.8,15.8,0000.0,0000.00,0000.00,0000.00
2022-05-23 00:30:00,,0826.2,4.99,0.00,30.0,29.0,00.0,38.9,31.8,15.7,0000.0,0000.00,0000.00,0000.00
2022-05-23 00:31:00,,0826.2,5.02,0.00,30.0,29.1,00.0,38.9,31.8,16.0,0000.0,0000.04,0000.02,0000.00
2022-05-23 00:32:00,,0826.2,5.00,0.00,30.0,29.1,00.0,38.9,31.8,15.6,0000.0,0000.05,0000.02,0000.00
2022-05-23 00:33:00,,0826.2,4.99,0.00,30.0,29.2,00.0,38.9,31.9,15.6,0000.0,0000.05,0000.02,0000.00
2022-05-23 00:34:00,,0826.2,5.01,0.00,30.1,29.2,00.0,38.9,31.9,15.7,0000.0,0000.05,0000.02,0000.01
2022-05-23 00:35:00,,0826.1,5.01,0.00,30.1,29.2,00.0,39.0,31.9,15.8,0000.0,0000.05,0000.02,0000.00
2022-05-23 00:36:00,,0826.1,5.00,0.00,30.1,29.2,00.0,39.0,31.9,15.4,0000.0,0000.05,0000.02,0000.00
2022-05-23 00:37:00,,0826.1,4.99,0.00,30.1,29.2,00.0,39.0,31.9,15.3,0000.0,0000.05,0000.02,0000.01
2022-05-23 00:38:00,,0826.2,4.99,0.00,30.1,29.3,00.0,39.0,32.0,15.3,0000.0,0000.05,0000.02,0000.01
2022-05-23 00:39:00,,0826.3,5.00,0.00,30.1,29.3,00.0,39.0,32.0,15.1,0000.0,0000.05,0000.02,0000.01
2022-05-23 00:40:00,,0826.4,5.01,0.00,30.1,29.3,00.0,39.0,32.0,15.6,0000.0,0000.05,0000.02,0000.01
2022-05-23 00:41:00,,0826.3,5.00,0.00,30.2,29.3,00.0,39.0,32.0,15.7,0000.0,0000.05,0000.02,0000.00
2022-05-23 00:42:00,,0826.3,5.00,0.00,30.2,29.4,00.0,39.0,32.0,15.6,0000.0,0000.01,0000.01,0000.00
2022-05-23 00:43:00,,0826.3,5.01,0.00,30.2,29.4,00.0,39.1,32.0,15.6,0000.0,0000.01,0000.00,0000.00
2022-05-23 00:44:00,,0826.3,5.00,0.00,30.2,29.4,00.0,39.1,32.0,15.8,0000.0,0000.01,0000.00,0000.00
2022-05-23 00:45:00,,0826.2,4.99,0.00,30.2,29.4,00.0,39.1,32.0,15.8,0000.0,0000.00,0000.00,0000.00
2022-05-23 00:46:00,,0826.2,5.00,0.00,30.2,29.4,00.0,39.1,32.1,15.2,0000.0,0000.00,0000.00,0000.00
2022-05-23 00:47:00,,0826.2,5.00,0.00,30.3,29.5,00.0,39.1,32.1,15.6,0000.0,0000.00,0000.00,0000.00
2022-05-23 00:48:00,,0826.2,5.00,0.00,30.3,29.5,00.0,39.1,32.1,15.8,0000.0,0000.00,0000.00,0000.00
2022-05-23 00:49:00,,0826.2,5.00,0.00,30.3,29.5,00.0,39.1,32.1,15.4,0000.0,0000.00,0000.00,0000.00
2022-05-23 00:50:00,,0826.2,5.00,0.00,30.3,29.5,00.0,39.2,32.1,15.2,0000.0,0000.00,0000.00,0000.00
2022-05-23 00:51:00,,0826.2,5.00,0.00,30.3,29.5,00.0,39.2,32.1,15.3,0000.0,0000.00,0000.00,0000.00
2022-05-23 00:52:00,,0826.2,5.00,0.00,30.3,29.5,00.0,39.2,32.1,15.4,0000.0,0000.00,0000.00,0000.00
2022-05-23 00:53:00,,0826.2,4.98,0.00,30.4,29.6,00.0,39.2,32.2,15.2,0000.0,0000.00,0000.00,0000.00
2022-05-23 00:54:00,,0826.2,5.01,0.00,30.4,29.6,00.0,39.2,32.2,15.1,0000.0,0000.03,0000.02,0000.00
2022-05-23 00:55:00,,0826.2,5.00,0.00,30.4,29.6,00.0,39.2,32.2,15.1,0000.0,0000.04,0000.02,0000.00
2022-05-23 00:56:00,,0826.2,5.00,0.00,30.4,29.6,00.0,39.2,32.2,14.9,0000.0,0000.04,0000.03,0000.01
2022-05-23 00:57:00,,0826.3,4.99,0.00,30.4,29.3,00.0,39.2,32.1,15.2,0000.0,0000.04,0000.03,0000.01
2022-05-23 00:58:00,,0826.2,5.01,0.00,30.3,28.1,00.0,39.1,31.8,15.3,0000.0,0000.04,0000.02,0000.01
2022-05-23 00:59:00,,0826.2,4.99,0.00,30.2,27.3,00.0,39.0,31.6,15.2,0000.0,0000.04,0000.03,0000.01
